• In Hungary
  • List of Countries
  • For 7 days
  • Water Temperature
  • Satellite Maps
  • Weather Map
  • News
  • Weather Widgets
  • user-avatar
    Login

    Hourly Weather Uyutnyy

    Today, 22 July, Sunday

    Time Temperature Precipitation Wind Pressure Humidity
    00:00 +19°C° 0.1 mm 2 mps 743 mmHg 94%
    01:00 +19°C° 0.1 mm 2 mps 743 mmHg 95%
    02:00 +18°C° 0.1 mm 2 mps 743 mmHg 95%
    03:00 +18°C° 0.3 mm 2 mps 743 mmHg 96%
    04:00 +18°C° 0.3 mm 2 mps 743 mmHg 96%
    05:00 +18°C° 0.3 mm 2 mps 743 mmHg 96%
    06:00 +19°C° 0.4 mm 2 mps 743 mmHg 94%
    07:00 +20°C° 0.4 mm 3 mps 743 mmHg 91%
    08:00 +21°C° 0.4 mm 3 mps 743 mmHg 89%
    09:00 +22°C° 0.8 mm 3 mps 743 mmHg 85%
    10:00 +24°C° 0.8 mm 3 mps 743 mmHg 82%
    11:00 +25°C° 0.8 mm 3 mps 743 mmHg 78%
    12:00 +25°C° 1.1 mm 3 mps 742 mmHg 78%
    13:00 +26°C° 1.1 mm 3 mps 742 mmHg 78%
    14:00 +26°C° 1.1 mm 3 mps 742 mmHg 77%
    15:00 +26°C° 0.8 mm 3 mps 742 mmHg 80%
    16:00 +25°C° 0.8 mm 3 mps 742 mmHg 83%
    17:00 +25°C° 0.8 mm 3 mps 742 mmHg 86%
    18:00 +24°C° 0.6 mm 3 mps 742 mmHg 88%
    19:00 +22°C° 0.6 mm 3 mps 742 mmHg 91%
    20:00 +21°C° 0.6 mm 3 mps 742 mmHg 94%
    21:00 +21°C° 1 mm 3 mps 742 mmHg 95%
    22:00 +20°C° 1 mm 3 mps 742 mmHg 96%
    23:00 +20°C° 1 mm 3 mps 742 mmHg 96%

    Tomorrow, 23 July, Monday

    Time Temperature Precipitation Wind Pressure Humidity
    00:00 +19°C° 0.3 mm 3 mps 742 mmHg 97%
    01:00 +19°C° 0.3 mm 3 mps 742 mmHg 97%
    02:00 +19°C° 0.3 mm 3 mps 742 mmHg 97%
    03:00 +19°C° 0 mm 3 mps 742 mmHg 97%
    04:00 +19°C° 0 mm 4 mps 742 mmHg 97%
    05:00 +19°C° 0 mm 4 mps 742 mmHg 97%
    06:00 +19°C° 0 mm 4 mps 742 mmHg 96%
    07:00 +19°C° 0 mm 4 mps 742 mmHg 95%
    08:00 +20°C° 0 mm 4 mps 742 mmHg 93%
    09:00 +20°C° 0 mm 4 mps 742 mmHg 92%
    10:00 +20°C° 0 mm 4 mps 743 mmHg 91%
    11:00 +21°C° 0 mm 4 mps 743 mmHg 89%
    12:00 +21°C° 0.1 mm 4 mps 743 mmHg 88%
    13:00 +22°C° 0.1 mm 4 mps 742 mmHg 86%
    14:00 +22°C° 0.1 mm 4 mps 742 mmHg 84%
    15:00 +22°C° 0.1 mm 4 mps 742 mmHg 85%
    16:00 +22°C° 0.1 mm 4 mps 742 mmHg 85%
    17:00 +22°C° 0.1 mm 4 mps 742 mmHg 85%
    18:00 +22°C° 0.1 mm 3 mps 742 mmHg 87%
    19:00 +21°C° 0.1 mm 3 mps 743 mmHg 89%
    20:00 +20°C° 0.1 mm 3 mps 743 mmHg 91%
    21:00 +20°C° 0 mm 3 mps 743 mmHg 92%
    22:00 +20°C° 0 mm 3 mps 743 mmHg 93%
    23:00 +19°C° 0 mm 3 mps 743 mmHg 94%

    Day after tomorrow, 24 July, Tuesday

    Time Temperature Precipitation Wind Pressure Humidity
    00:00 +19°C° 0 mm 3 mps 743 mmHg 95%
    01:00 +18°C° 0 mm 3 mps 743 mmHg 96%
    02:00 +18°C° 0 mm 3 mps 743 mmHg 97%
    03:00 +18°C° 0 mm 3 mps 743 mmHg 97%
    04:00 +18°C° 0 mm 3 mps 743 mmHg 96%
    05:00 +18°C° 0 mm 4 mps 743 mmHg 96%
    06:00 +18°C° 0 mm 4 mps 744 mmHg 95%
    07:00 +18°C° 0 mm 4 mps 744 mmHg 94%
    08:00 +19°C° 0 mm 4 mps 744 mmHg 92%
    09:00 +20°C° 0 mm 4 mps 744 mmHg 90%
    10:00 +20°C° 0 mm 4 mps 744 mmHg 87%
    11:00 +21°C° 0 mm 4 mps 744 mmHg 84%
    12:00 +22°C° 0 mm 4 mps 744 mmHg 83%
    13:00 +22°C° 0 mm 4 mps 744 mmHg 81%
    14:00 +23°C° 0 mm 4 mps 744 mmHg 79%
    15:00 +23°C° 0.1 mm 4 mps 744 mmHg 79%
    16:00 +23°C° 0.1 mm 4 mps 744 mmHg 80%
    17:00 +23°C° 0.1 mm 4 mps 744 mmHg 80%
    18:00 +22°C° 0.1 mm 4 mps 744 mmHg 85%
    19:00 +21°C° 0.1 mm 3 mps 744 mmHg 89%
    20:00 +20°C° 0.1 mm 2 mps 744 mmHg 93%
    21:00 +20°C° 0 mm 2 mps 744 mmHg 94%
    22:00 +19°C° 0 mm 2 mps 744 mmHg 95%
    23:00 +19°C° 0 mm 2 mps 744 mmHg 96%

    25 July, Wednesday

    Time Temperature Precipitation Wind Pressure Humidity
    00:00 +19°C° 0 mm 2 mps 744 mmHg 96%
    01:00 +19°C° 0 mm 2 mps 745 mmHg 96%
    02:00 +19°C° 0 mm 2 mps 745 mmHg 96%
    03:00 +19°C° 0 mm 2 mps 745 mmHg 96%
    04:00 +19°C° 0 mm 2 mps 745 mmHg 96%
    05:00 +19°C° 0 mm 2 mps 745 mmHg 96%
    06:00 +20°C° 0.2 mm 2 mps 745 mmHg 93%
    07:00 +21°C° 0.2 mm 2 mps 745 mmHg 89%
    08:00 +23°C° 0.2 mm 2 mps 746 mmHg 86%
    09:00 +24°C° 1.1 mm 3 mps 746 mmHg 82%
    10:00 +25°C° 1.1 mm 3 mps 746 mmHg 79%
    11:00 +26°C° 1.1 mm 3 mps 746 mmHg 75%
    12:00 +27°C° 0.5 mm 3 mps 746 mmHg 73%
    13:00 +27°C° 0.5 mm 3 mps 746 mmHg 70%
    14:00 +28°C° 0.5 mm 3 mps 746 mmHg 68%
    15:00 +27°C° 0.8 mm 3 mps 746 mmHg 71%
    16:00 +27°C° 0.8 mm 2 mps 746 mmHg 74%
    17:00 +26°C° 0.8 mm 2 mps 746 mmHg 77%
    18:00 +25°C° 0.3 mm 2 mps 746 mmHg 81%
    19:00 +24°C° 0.3 mm 2 mps 746 mmHg 86%
    20:00 +23°C° 0.3 mm 2 mps 746 mmHg 90%
    21:00 +21°C° 0.4 mm 2 mps 746 mmHg 92%
    22:00 +20°C° 0.4 mm 2 mps 746 mmHg 94%
    23:00 +20°C° 0.4 mm 2 mps 747 mmHg 95%

    26 July, Thursday

    Time Temperature Precipitation Wind Pressure Humidity
    00:00 +19°C° 0 mm 2 mps 747 mmHg 96%
    01:00 +19°C° 0 mm 2 mps 747 mmHg 96%
    02:00 +19°C° 0 mm 2 mps 747 mmHg 96%
    03:00 +19°C° 0.1 mm 2 mps 747 mmHg 96%
    04:00 +19°C° 0.1 mm 2 mps 748 mmHg 96%
    05:00 +19°C° 0.1 mm 2 mps 748 mmHg 96%
    06:00 +20°C° 0 mm 2 mps 748 mmHg 92%
    07:00 +23°C° 0 mm 2 mps 748 mmHg 89%
    08:00 +24°C° 0 mm 2 mps 748 mmHg 85%
    09:00 +26°C° 0 mm 2 mps 748 mmHg 79%
    10:00 +27°C° 0 mm 3 mps 748 mmHg 72%
    11:00 +29°C° 0 mm 3 mps 748 mmHg 66%
    12:00 +29°C° 0.1 mm 3 mps 748 mmHg 64%
    13:00 +29°C° 0.1 mm 3 mps 748 mmHg 63%
    14:00 +30°C° 0.1 mm 3 mps 748 mmHg 61%
    15:00 +30°C° 0.1 mm 3 mps 748 mmHg 63%
    16:00 +30°C° 0.1 mm 3 mps 748 mmHg 66%
    17:00 +29°C° 0.1 mm 3 mps 748 mmHg 68%
    18:00 +28°C° 0.1 mm 3 mps 748 mmHg 73%
    19:00 +26°C° 0.1 mm 3 mps 748 mmHg 79%
    20:00 +25°C° 0.1 mm 2 mps 749 mmHg 85%
    21:00 +24°C° 0 mm 2 mps 749 mmHg 87%
    22:00 +23°C° 0 mm 2 mps 749 mmHg 90%
    23:00 +21°C° 0 mm 2 mps 749 mmHg 93%

    27 July, Friday

    Time Temperature Precipitation Wind Pressure Humidity
    00:00 +21°C° 0 mm 2 mps 749 mmHg 93%
    01:00 +21°C° 0 mm 3 mps 749 mmHg 94%
    02:00 +20°C° 0 mm 3 mps 749 mmHg 95%
    03:00 +20°C° 0 mm 3 mps 749 mmHg 96%
    04:00 +20°C° 0 mm 3 mps 749 mmHg 96%
    05:00 +20°C° 0 mm 3 mps 749 mmHg 96%
    06:00 +21°C° 0 mm 3 mps 750 mmHg 92%
    07:00 +24°C° 0 mm 3 mps 750 mmHg 88%
    08:00 +25°C° 0 mm 4 mps 750 mmHg 83%
    09:00 +26°C° 0.2 mm 4 mps 750 mmHg 79%
    10:00 +28°C° 0.2 mm 4 mps 750 mmHg 74%
    11:00 +29°C° 0.2 mm 4 mps 750 mmHg 70%
    12:00 +30°C° 0.6 mm 5 mps 750 mmHg 67%
    13:00 +30°C° 0.6 mm 5 mps 750 mmHg 64%
    14:00 +32°C° 0.6 mm 5 mps 750 mmHg 62%
    15:00 +32°C° 0.1 mm 5 mps 750 mmHg 64%
    16:00 +30°C° 0.1 mm 4 mps 750 mmHg 66%
    17:00 +30°C° 0.1 mm 4 mps 750 mmHg 68%
    18:00 +29°C° 0 mm 4 mps 751 mmHg 71%
    19:00 +28°C° 0 mm 4 mps 751 mmHg 74%
    20:00 +26°C° 0 mm 4 mps 751 mmHg 78%
    21:00 +26°C° 0 mm 4 mps 751 mmHg 78%
    22:00 +25°C° 0 mm 4 mps 752 mmHg 79%
    23:00 +25°C° 0 mm 4 mps 752 mmHg 79%
    Show more